Weather reports worldwide

Advertisment
Leucate/Semaphore, France (7666): temperature & dewpoint: 18.06.2018 11:00:00 - 24.06.2018 11:00:00 (CEST)Leucate/Semaphore, France (7666): wind speed & gusts: 18.06.2018 11:00:00 - 24.06.2018 11:00:00 (CEST)Leucate/Semaphore, France (7666): wind direction: 18.06.2018 11:00:00 - 24.06.2018 11:00:00 (CEST)Leucate/Semaphore, France (7666): reduced air pressure: 18.06.2018 11:00:00 - 24.06.2018 11:00:00 (CEST)Leucate/Semaphore, France (7666): visibility: 18.06.2018 11:00:00 - 24.06.2018 11:00:00 (CEST)Leucate/Semaphore, France (7666): precipitation: 18.06.2018 11:00:00 - 24.06.2018 11:00:00 (CEST)
Date & Time tt [°C] td [°C] ff [km/h] ff [kn] fx [km/h] fx [kn] dd ppp [hPa] vv [km] rr [mm]
24.06.2018 11:00:00 22,1 14,0 5 3 16 8 E 1017,6 25 0,0
24.06.2018 10:00:00 22,3 13,6 4 2 11 6 NE 1017,6 - 0,0
24.06.2018 09:00:00 21,5 15,3 4 2 14 7 ESE 1017,7 - 0,0
24.06.2018 08:00:00 18,1 11,6 11 6 13 7 WSW 1017,3 25 0,0
24.06.2018 07:00:00 17,4 13,3 7 4 15 8 W 1017,1 - 0,0
24.06.2018 06:00:00 18,6 13,9 14 8 19 11 N 1017,0 - 0,0
24.06.2018 05:00:00 18,5 12,9 4 2 9 5 NNW 1016,8 - 0,0
24.06.2018 04:00:00 19,2 13,6 7 4 12 6 NNW 1017,1 - 0,0
24.06.2018 03:00:00 20,2 14,3 6 3 13 7 S 1017,5 - 0,0
24.06.2018 02:00:00 20,8 14,9 13 7 15 8 SW 1017,7 - 0,0
24.06.2018 01:00:00 21,4 14,8 11 6 18 10 SSW 1017,8 - 0,0
24.06.2018 00:00:00 21,8 14,2 14 8 17 9 SW 1017,9 - 0,0
23.06.2018 23:00:00 22,4 14,3 12 6 14 8 SW 1018,0 - 0,0
23.06.2018 22:00:00 22,8 12,7 12 6 18 10 SSW 1017,7 - 0,0
23.06.2018 21:00:00 23,8 11,5 10 5 15 8 SW 1017,3 - 0,0
23.06.2018 20:00:00 23,6 11,3 12 7 17 9 S 1017,1 20 0,0
23.06.2018 19:00:00 23,8 11,8 10 6 15 8 S 1017,1 - 0,0
23.06.2018 18:00:00 23,7 11,4 10 6 14 8 S 1017,5 - 0,0
23.06.2018 17:00:00 23,6 11,0 9 5 23 13 S 1017,8 - 0,0
23.06.2018 16:00:00 23,5 10,9 14 8 29 15 S 1018,1 - 0,0
23.06.2018 15:00:00 23,1 12,1 12 7 28 15 ESE 1018,1 - 0,0
23.06.2018 14:00:00 23,5 10,9 10 6 22 12 E 1018,7 - 0,0
23.06.2018 13:00:00 22,4 11,5 11 6 25 14 ENE 1019,1 - 0,0
23.06.2018 12:00:00 22,9 11,3 7 4 23 13 ENE 1019,2 - 0,0
23.06.2018 11:00:00 21,9 12,4 9 5 36 19 N 1019,0 - 0,0
23.06.2018 10:00:00 23,2 10,9 14 8 31 17 N 1019,1 - 0,0
23.06.2018 09:00:00 20,9 13,1 8 4 17 9 N 1018,8 - 0,0
23.06.2018 08:00:00 19,5 10,8 8 4 22 12 N 1018,8 - 0,0
23.06.2018 07:00:00 17,9 10,8 11 6 19 10 N 1018,6 - 0,0
23.06.2018 06:00:00 17,7 12,4 8 4 19 10 NNW 1018,3 - 0,0
23.06.2018 05:00:00 18,6 10,4 11 6 19 10 N 1018,0 20 0,0
23.06.2018 04:00:00 19,3 11,6 14 7 18 10 N 1018,0 - 0,0
23.06.2018 03:00:00 19,6 10,6 13 7 25 13 NNW 1018,0 - 0,0
23.06.2018 02:00:00 21,0 9,6 16 9 26 14 NW 1018,2 - 0,0
23.06.2018 01:00:00 22,1 10,3 16 9 31 17 NW 1018,3 - 0,0
23.06.2018 00:00:00 22,4 9,9 15 8 29 15 NW 1018,0 - 0,0
22.06.2018 23:00:00 23,3 5,2 10 6 32 17 NW 1018,0 - 0,0
22.06.2018 22:00:00 24,9 6,1 17 9 47 25 NNW 1017,0 - 0,0
22.06.2018 21:00:00 26,9 9,3 22 12 59 32 NNW 1016,2 - 0,0
22.06.2018 20:00:00 28,4 11,9 30 16 66 35 NW 1015,4 22 0,0
22.06.2018 19:00:00 29,5 11,5 31 17 69 37 NW 1014,6 - 0,0
22.06.2018 18:00:00 30,2 12,1 32 17 70 38 NW 1014,9 - 0,0
22.06.2018 17:00:00 30,2 12,1 36 20 71 39 NW 1015,1 22 0,0
22.06.2018 16:00:00 30,3 13,6 37 20 69 38 NW 1015,3 - 0,0
22.06.2018 15:00:00 29,2 15,3 31 17 64 35 NW 1015,6 - 0,0
22.06.2018 14:00:00 29,0 16,2 32 17 69 37 NW 1016,2 20 0,0
22.06.2018 13:00:00 28,4 16,3 32 18 75 40 NW 1016,6 - 0,0
22.06.2018 12:00:00 27,0 16,3 41 22 70 38 NW 1016,0 - 0,0
22.06.2018 11:00:00 26,1 16,9 31 17 61 33 NW 1016,5 - 0,0
22.06.2018 10:00:00 24,5 17,2 33 18 63 34 NW 1017,0 - 0,0
22.06.2018 09:00:00 24,0 17,5 27 15 59 32 NW 1017,0 - 0,0
22.06.2018 08:00:00 23,3 17,7 30 16 54 29 NW 1016,5 - 0,0
22.06.2018 07:00:00 22,5 17,8 19 10 31 17 NNW 1016,9 - 0,0
22.06.2018 06:00:00 23,2 17,9 25 13 51 28 WNW 1015,9 - 0,0
22.06.2018 05:00:00 23,6 18,3 30 16 59 32 NW 1015,5 20 0,0
22.06.2018 04:00:00 24,2 18,8 27 15 57 31 WNW 1015,8 - 0,0
22.06.2018 03:00:00 24,9 19,3 28 15 59 32 NW 1016,1 - 0,0
22.06.2018 02:00:00 25,8 19,4 29 15 55 30 WNW 1016,1 - 0,0
22.06.2018 01:00:00 26,7 19,8 29 16 58 31 NW 1016,0 - 0,0
22.06.2018 00:00:00 27,7 18,7 23 12 41 22 NW 1016,1 - 0,0
21.06.2018 23:00:00 28,1 18,2 21 11 44 24 NW 1015,8 - 0,0
21.06.2018 22:00:00 28,7 18,5 16 9 41 22 NW 1015,3 - 0,0
21.06.2018 21:00:00 30,3 17,4 18 10 46 25 NW 1014,9 - 0,0
21.06.2018 20:00:00 30,9 16,1 21 11 44 24 NNW 1014,8 - 0,0
21.06.2018 19:00:00 32,3 17,4 14 8 34 19 NNW 1014,4 - 0,0
21.06.2018 18:00:00 25,2 17,7 19 10 32 17 S 1014,9 - 0,0
21.06.2018 17:00:00 23,7 18,8 22 12 29 16 S 1015,3 - 0,0
21.06.2018 16:00:00 24,0 18,4 19 10 24 13 S 1015,9 - 0,0
21.06.2018 15:00:00 24,3 19,1 18 10 22 12 S 1016,2 - 0,0
21.06.2018 14:00:00 25,2 19,3 14 8 19 11 S 1016,5 20 0,0
21.06.2018 13:00:00 24,6 19,0 15 8 20 11 S 1016,9 - 0,0
21.06.2018 12:00:00 23,5 18,6 10 6 14 7 S 1017,4 - 0,0
21.06.2018 11:00:00 23,2 17,2 5 3 9 5 SE 1017,6 20 0,0
21.06.2018 10:00:00 23,0 18,1 5 3 9 5 SE 1017,8 - 0,0
21.06.2018 09:00:00 23,3 17,3 4 2 8 4 ENE 1017,7 - 0,0
21.06.2018 08:00:00 21,8 16,3 3 2 10 6 NNW 1017,4 - 0,0
21.06.2018 07:00:00 20,7 16,9 0 0 7 4 N 1017,4 - 0,2
21.06.2018 06:00:00 19,2 16,1 7 4 10 5 NW 1017,3 - 0,0
21.06.2018 05:00:00 19,1 16,9 7 4 11 6 NW 1017,2 - 0,0
21.06.2018 04:00:00 19,5 17,5 9 5 16 9 NNW 1017,4 - 0,0
21.06.2018 03:00:00 19,8 17,9 9 5 16 8 NNW 1017,9 - 0,0
21.06.2018 02:00:00 20,5 19,2 10 5 18 10 N 1018,2 - 0,0
21.06.2018 01:00:00 20,5 19,2 7 4 15 8 N 1018,0 - 0,0
21.06.2018 00:00:00 21,0 19,3 9 5 15 8 N 1018,5 - 0,0
20.06.2018 23:00:00 20,9 18,7 11 6 13 7 N 1018,5 - 0,0
20.06.2018 22:00:00 21,3 18,3 4 2 10 5 NNW 1018,1 - 0,0
20.06.2018 21:00:00 22,6 18,4 3 2 10 5 NE 1017,6 - 0,0
20.06.2018 20:00:00 23,5 17,7 3 2 10 6 NE 1017,6 25 0,0
20.06.2018 19:00:00 24,2 17,4 3 2 6 3 SSE 1017,5 - 0,0
20.06.2018 18:00:00 24,3 17,8 7 4 13 7 SE 1017,8 - 0,0
20.06.2018 17:00:00 24,0 17,3 10 5 14 7 SE 1018,1 - 0,0
20.06.2018 16:00:00 24,2 17,0 8 4 13 7 SSE 1018,2 - 0,0
20.06.2018 15:00:00 23,9 18,1 9 5 13 7 SSE 1018,4 - 0,0
20.06.2018 14:00:00 23,7 18,8 5 3 10 5 ESE 1018,9 25 0,0
20.06.2018 13:00:00 24,0 18,9 5 3 10 5 ESE 1019,2 - 0,0
20.06.2018 12:00:00 23,9 17,9 5 3 10 5 ESE 1019,2 - 0,0
20.06.2018 11:00:00 24,0 16,0 5 3 9 5 ESE 1019,0 - 0,0
20.06.2018 10:00:00 23,1 16,9 4 2 7 4 SSE 1019,1 - 0,0
20.06.2018 09:00:00 25,3 15,0 4 2 10 5 N 1018,9 - 0,0
20.06.2018 08:00:00 22,2 16,2 7 4 13 7 NNW 1018,9 - 0,0
20.06.2018 07:00:00 20,8 15,8 6 3 11 6 NNW 1018,5 - 0,0
20.06.2018 06:00:00 20,1 14,7 7 4 9 5 N 1018,4 - 0,0
20.06.2018 05:00:00 21,9 14,8 2 1 6 4 E 1018,4 22 0,0
20.06.2018 04:00:00 22,2 14,6 4 2 6 4 NE 1018,5 - 0,0
20.06.2018 03:00:00 23,0 14,3 2 1 10 5 NNE 1018,7 - 0,0
20.06.2018 02:00:00 23,8 14,2 8 5 16 8 SW 1018,8 - 0,0
20.06.2018 01:00:00 23,2 14,2 8 5 13 7 W 1019,1 - 0,0
20.06.2018 00:00:00 24,0 15,0 3 1 17 9 SW 1019,0 - 0,0
19.06.2018 23:00:00 24,7 15,3 8 4 15 8 WNW 1018,8 - 0,0
19.06.2018 22:00:00 25,3 14,4 6 3 12 6 WNW 1018,4 - 0,0
19.06.2018 21:00:00 26,5 14,3 7 4 11 6 ESE 1018,1 - 0,0
19.06.2018 20:00:00 26,5 14,6 6 4 14 8 SE 1018,3 - 0,0
19.06.2018 19:00:00 26,9 15,0 4 2 13 7 SE 1018,4 - 0,0
19.06.2018 18:00:00 29,7 13,5 9 5 16 9 N 1018,7 - 0,0
19.06.2018 17:00:00 29,6 14,6 11 6 19 10 N 1019,0 25 0,0
19.06.2018 16:00:00 29,0 14,0 12 6 27 14 N 1019,4 - 0,0
19.06.2018 15:00:00 30,0 14,1 15 8 30 16 NNW 1019,7 - 0,0
19.06.2018 14:00:00 29,1 12,9 17 9 35 19 NNW 1020,2 - 0,0
19.06.2018 13:00:00 28,4 12,3 18 10 42 23 NNW 1020,6 - 0,0
19.06.2018 12:00:00 27,3 14,3 23 12 45 24 NW 1020,7 - 0,0
19.06.2018 11:00:00 26,2 14,0 28 15 49 27 NW 1020,8 - 0,0
19.06.2018 10:00:00 24,9 14,7 26 14 49 26 NW 1021,2 - 0,0
19.06.2018 09:00:00 23,4 14,4 23 12 47 26 NW 1021,6 - 0,0
19.06.2018 08:00:00 21,7 15,1 21 11 48 26 NW 1021,4 - 0,0
19.06.2018 07:00:00 20,1 14,9 27 15 57 31 NW 1021,1 - 0,0
19.06.2018 06:00:00 19,9 14,7 26 14 49 26 NW 1020,8 - 0,0
19.06.2018 05:00:00 20,0 14,6 24 13 46 25 NW 1021,1 35 0,0
19.06.2018 04:00:00 20,1 14,2 19 10 43 23 NW 1021,7 - 0,0
19.06.2018 03:00:00 20,4 13,8 23 12 55 30 NW 1021,5 - 0,0
19.06.2018 02:00:00 20,7 14,3 27 15 63 34 NW 1021,3 - 0,0
19.06.2018 01:00:00 20,8 14,0 27 15 53 29 NW 1021,7 - 0,0
19.06.2018 00:00:00 21,0 13,9 26 14 56 30 NW 1022,0 - 0,0
18.06.2018 23:00:00 21,4 13,3 31 17 57 31 NW 1021,3 - 0,0
18.06.2018 22:00:00 22,2 12,7 29 16 60 32 NW 1020,6 - 0,0
18.06.2018 21:00:00 23,3 12,3 31 17 69 37 NW 1020,2 - 0,0
18.06.2018 20:00:00 24,2 12,2 35 19 79 43 NW 1019,7 20 0,0
18.06.2018 19:00:00 24,4 12,4 44 24 89 48 NW 1019,4 - 0,0
18.06.2018 18:00:00 25,1 13,0 46 25 91 49 NW 1019,4 - 0,0
18.06.2018 17:00:00 25,3 13,8 46 25 82 44 NW 1019,4 - 0,0
18.06.2018 16:00:00 25,1 13,9 44 24 90 49 NW 1019,4 - 0,0
18.06.2018 15:00:00 24,5 13,1 45 25 90 48 NW 1019,1 - 0,0
18.06.2018 14:00:00 23,5 13,1 49 26 103 55 NW 1019,5 20 0,0
18.06.2018 13:00:00 22,7 12,6 46 25 95 51 NW 1019,9 - 0,0
18.06.2018 12:00:00 22,2 12,4 49 26 96 52 NW 1020,0 - 0,0
18.06.2018 11:00:00 21,6 11,3 47 25 84 46 NW 1020,2 20 0,0

tt = temperature
td = dewpoint
ff = wind speed
fx = gusts
dd = wind direction
ppp = reduced air pressure
vv = visibility
rr = precipitation

Next stations